GW2844 Weather Reports


time (UTC)temp
F
wind
direction
speed
knots
gust
knots
rain 1hr
in
rain 24hr
in
rain mn
in
humidity
%
barometer
mb
20260505220303 61 210 5.2 5.2 0.00 0.00 0.00 75 1017.1
20260505215801 61 218 1.7 1.7 0.00 0.00 0.00 76 1017.1
20260505215259 61 216 1.7 1.7 0.00 0.00 0.00 76 1017.4
20260505214756 60 210 6.1 7.0 0.00 0.00 0.00 76 1017.1
20260505214254 60 212 4.3 4.3 0.00 0.00 0.00 77 1017.1
20260505213751 60 250 4.3 5.2 0.00 0.00 0.00 77 1017.4
20260505213249 60 210 5.2 5.2 0.00 0.00 0.00 76 1017.1
20260505212744 60 268 4.3 5.2 0.00 0.00 0.00 79 1017.4
20260505212242 59 210 5.2 6.1 0.00 0.00 0.00 77 1017.4
20260505211738 60 259 7.8 8.7 0.00 0.00 0.00 78 1017.1
20260505211236 60 257 5.2 5.2 0.00 0.00 0.00 76 1017.1
20260505210732 59 252 4.3 5.2 0.00 0.00 0.00 78 1017.1
20260505210229 60 222 1.7 1.7 0.00 0.00 0.00 77 1017.1
20260505205726 60 280 5.2 5.2 0.00 0.00 0.00 78 1017.1
20260505205224 60 258 3.5 4.3 0.00 0.00 0.00 78 1017.1
20260505204720 60 235 2.6 2.6 0.00 0.00 0.00 77 1017.4
20260505204219 59 206 1.7 1.7 0.00 0.00 0.00 78 1017.4
20260505203715 60 240 5.2 6.1 0.00 0.00 0.00 77 1017.1
20260505203212 59 246 5.2 5.2 0.00 0.00 0.00 78 1017.1
20260505202708 59 222 5.2 5.2 0.00 0.00 0.00 76 1017.4
20260505202204 60 210 3.5 4.3 0.00 0.00 0.00 78 1017.1
20260505201701 59 246 6.1 6.1 0.00 0.00 0.00 78 1017.4
20260505201159 59 216 3.5 4.3 0.00 0.00 0.00 79 1017.1
20260505200657 59 210 2.6 2.6 0.00 0.00 0.00 77 1017.1
20260505200153 58 275 3.5 3.5 0.00 0.00 0.00 80 1017.1
20260505195649 59 263 4.3 5.2 0.00 0.00 0.00 79 1017.1
20260505195147 59 216 3.5 3.5 0.00 0.00 0.00 79 1017.1
20260505194644 58 126 1.7 1.7 0.00 0.00 0.00 79 1017.4
20260505194140 58 216 3.5 4.3 0.00 0.00 0.00 80 1017.4
20260505193636 58 237 1.7 1.7 0.00 0.00 0.00 80 1017.1
20260505193133 58 229 3.5 3.5 0.00 0.00 0.00 80 1017.4
20260505192632 58 234 4.3 5.2 0.00 0.00 0.00 80 1017.1
20260505192129 58 234 3.5 4.3 0.00 0.00 0.00 80 1017.1
20260505191628 58 222 1.7 1.7 0.00 0.00 0.00 79 1017.1
20260505191125 58 229 2.6 2.6 0.00 0.00 0.00 79 1017.4
20260505190621 58 212 1.7 1.7 0.00 0.00 0.00 81 1017.1
20260505190116 58 271 5.2 5.2 0.00 0.00 0.00 81 1017.1
20260505185613 57 264 1.7 1.7 0.00 0.00 0.00 82 1017.1
20260505185109 57 251 3.5 3.5 0.00 0.00 0.00 81 1017.1
20260505184606 57 236 3.5 3.5 0.00 0.00 0.00 81 1017.1
20260505184103 57 290 3.5 3.5 0.00 0.00 0.00 82 1017.1
20260505183559 57 250 3.5 4.3 0.00 0.00 0.00 82 1017.4
20260505183057 57 229 2.6 2.6 0.00 0.00 0.00 82 1017.1
20260505182553 57 261 4.3 4.3 0.00 0.00 0.00 82 1017.1
20260505182050 57 252 2.6 2.6 0.00 0.00 0.00 83 1017.1
20260505181547 57 250 1.7 1.7 0.00 0.00 0.00 82 1017.1
20260505181044 57 228 2.6 2.6 0.00 0.00 0.00 83 1017.4
20260505180539 56 230 4.3 5.2 0.00 0.00 0.00 82 1017.4
20260505180038 56 228 3.5 3.5 0.00 0.00 0.00 83 1017.4
20260505175537 56 249 3.5 3.5 0.00 0.00 0.00 83 1017.1
20260505175035 56 261 1.7 1.7 0.00 0.00 0.00 83 1017.4
20260505174532 56 212 4.3 5.2 0.00 0.00 0.00 83 1017.1
20260505174028 56 228 1.7 1.7 0.00 0.00 0.00 83 1017.1
20260505173525 56 276 1.7 1.7 0.00 0.00 0.00 83 1017.1
20260505173022 57 264 3.5 4.3 0.00 0.00 0.00 83 1016.7
20260505172520 56 230 2.6 2.6 0.00 0.00 0.00 83 1016.7
20260505172015 56 174 2.6 2.6 0.00 0.00 0.00 83 1017.1
20260505171511 56 156 1.7 1.7 0.00 0.00 0.00 84 1016.7
20260505171008 56 264 3.5 3.5 0.00 0.00 0.00 84 1016.7
20260505170505 56 180 1.7 1.7 0.00 0.00 0.00 85 1016.7
20260505170000 56 168 1.7 1.7 0.00 0.00 0.00 85 1016.7
20260505165456 56 240 2.6 2.6 0.00 0.00 0.00 85 1017.1
20260505164952 55 162 1.7 1.7 0.00 0.00 0.00 85 1016.7
20260505164448 55 216 4.3 4.3 0.00 0.00 0.00 85 1016.7
20260505163946 55 216 3.5 3.5 0.00 0.00 0.00 85 1016.7
20260505163445 55 222 2.6 2.6 0.00 0.00 0.00 85 1016.7
20260505162944 56 216 1.7 1.7 0.00 0.00 0.00 85 1016.7
20260505162439 56 216 0.0 0.0 0.00 0.00 0.00 85 1016.7
20260505161936 55 212 2.6 2.6 0.00 0.00 0.00 85 1016.4
20260505161432 55 168 1.7 1.7 0.00 0.00 0.00 85 1016.7
20260505160930 56 228 1.7 1.7 0.00 0.00 0.00 85 1016.4
20260505160429 55 228 1.7 1.7 0.00 0.00 0.00 85 1016.4
20260505152904 55 180 1.7 1.7 0.00 0.00 0.00 86 1016.4
20260505152356 55 180 2.6 3.5 0.00 0.00 0.00 86 1016.4
20260505151855 55 234 1.7 1.7 0.00 0.00 0.00 86 1016.7
20260505151352 55 186 1.7 1.7 0.00 0.00 0.00 85 1016.0
20260505150849 55 258 2.6 2.6 0.00 0.00 0.00 86 1016.0
20260505150346 55 150 0.0 0.0 0.00 0.00 0.00 85 1016.4
20260505140311 55 216 2.6 2.6 0.00 0.00 0.00 86 1015.7
20260505130234 55 223 2.6 2.6 0.00 0.00 0.00 86 1015.0
20260505124725 55 245 3.5 3.5 0.00 0.00 0.00 86 1015.0
20260505124222 55 150 1.7 1.7 0.00 0.00 0.00 86 1015.4
20260505123717 55 146 2.6 2.6 0.00 0.00 0.00 87 1014.7
20260505123214 55 145 2.6 2.6 0.00 0.00 0.00 87 1014.7
20260505122711 55 240 0.9 0.9 0.00 0.00 0.00 87 1015.0
20260505122208 55 168 0.0 0.0 0.00 0.00 0.00 87 1014.7
20260505121704 55 252 1.7 1.7 0.00 0.00 0.00 87 1015.0
20260505121201 55 234 2.6 2.6 0.00 0.00 0.00 87 1014.7
20260505120657 55 246 1.7 1.7 0.00 0.00 0.00 87 1015.0
20260505120153 55 150 1.7 1.7 0.00 0.00 0.00 87 1014.7
20260505115647 55 138 1.7 1.7 0.00 0.00 0.00 87 1014.7
20260505115145 54 168 0.0 0.0 0.00 0.00 0.00 87 1014.7
20260505114642 54 150 1.7 1.7 0.00 0.00 0.00 87 1014.7
20260505114138 54 228 0.0 0.0 0.00 0.00 0.00 87 1014.7
20260505113635 54 150 2.6 2.6 0.00 0.00 0.00 87 1014.7
20260505113131 55 174 1.7 1.7 0.00 0.00 0.00 87 1014.7
20260505112627 55 240 1.7 1.7 0.00 0.00 0.00 87 1014.7
20260505112126 55 240 0.0 0.0 0.00 0.00 0.00 87 1015.0
20260505111620 55 216 3.5 3.5 0.00 0.00 0.00 87 1014.7
20260505111116 55 222 1.7 1.7 0.00 0.00 0.00 87 1014.7
20260505110612 55 222 1.7 1.7 0.00 0.00 0.00 87 1014.4
20260505110109 55 222 0.0 0.0 0.00 0.00 0.00 87 1014.7
20260505102045 54 234 3.5 3.5 0.00 0.00 0.00 88 1014.4
20260505101543 54 150 1.7 1.7 0.00 0.00 0.00 87 1014.7
20260505101039 55 251 2.6 2.6 0.00 0.00 0.00 87 1014.4
20260505100536 55 162 0.9 0.9 0.00 0.00 0.00 87 1014.4
20260505100033 54 228 0.0 0.0 0.00 0.00 0.00 87 1014.0
20260505095529 54 246 3.5 3.5 0.00 0.00 0.00 87 1014.4
20260505095026 54 223 1.7 1.7 0.00 0.00 0.00 88 1014.0
20260505094522 54 228 0.0 0.0 0.00 0.00 0.00 88 1014.4
20260505094019 54 222 0.0 0.0 0.00 0.00 0.00 88 1014.4
20260505093515 54 222 0.9 0.9 0.00 0.00 0.00 88 1014.4
20260505093013 54 162 3.5 3.5 0.00 0.00 0.00 88 1014.4
20260505092510 54 222 3.5 3.5 0.00 0.00 0.00 88 1014.4
20260505092008 54 230 2.6 2.6 0.00 0.00 0.00 88 1014.0
20260505091505 54 228 1.7 1.7 0.00 0.00 0.00 88 1014.0
20260505091003 54 144 0.0 0.0 0.00 0.00 0.00 88 1014.0
20260505090500 54 180 0.0 0.0 0.00 0.00 0.00 88 1014.0
20260505085958 54 228 2.6 3.5 0.00 0.00 0.00 88 1013.7
20260505085456 54 222 0.0 0.0 0.00 0.00 0.00 88 1014.0
20260505084954 54 234 0.0 0.0 0.00 0.00 0.00 88 1013.7
20260505084452 54 228 2.6 2.6 0.00 0.00 0.00 88 1013.7
20260505083949 54 222 2.6 3.5 0.00 0.00 0.00 88 1014.0
20260505083446 53 228 1.7 1.7 0.00 0.00 0.00 89 1013.7
20260505082942 53 156 0.0 0.0 0.00 0.00 0.00 89 1014.0
20260505082438 53 234 3.5 3.5 0.00 0.00 0.00 89 1013.7
20260505081936 53 216 1.7 1.7 0.00 0.00 0.00 89 1013.7
20260505081432 53 204 1.7 1.7 0.00 0.00 0.00 89 1013.7
20260505080929 53 234 1.7 1.7 0.00 0.00 0.00 89 1013.7
20260505080425 53 210 0.0 0.0 0.00 0.00 0.00 89 1013.7
20260505075920 53 240 1.7 1.7 0.00 0.00 0.00 89 1013.7
20260505075417 53 216 0.0 0.0 0.00 0.00 0.00 89 1013.7
20260505074915 53 234 0.0 0.0 0.00 0.00 0.00 89 1013.3
20260505074412 54 180 0.0 0.0 0.00 0.00 0.00 89 1013.3
20260505073909 54 235 2.6 2.6 0.00 0.00 0.00 89 1013.3
20260505073407 54 228 0.9 0.9 0.00 0.00 0.00 89 1013.3
20260505072904 54 216 0.0 0.0 0.00 0.00 0.00 89 1013.3
20260505072400 54 210 0.0 0.0 0.00 0.00 0.00 89 1013.3
20260505071856 54 210 3.5 3.5 0.00 0.00 0.00 88 1013.3
20260505071352 54 210 0.0 0.0 0.00 0.00 0.00 89 1013.3
20260505070851 54 154 0.0 0.0 0.00 0.00 0.00 89 1013.3
20260505070347 54 150 1.7 1.7 0.00 0.00 0.00 89 1013.3
20260505065842 54 222 0.0 0.0 0.00 0.00 0.00 88 1013.3
20260505065339 54 174 1.7 1.7 0.00 0.00 0.00 89 1013.3
20260505064836 54 204 0.0 0.0 0.00 0.00 0.00 88 1013.3
20260505064333 54 222 4.3 4.3 0.00 0.00 0.00 88 1013.3
20260505063832 54 246 1.7 1.7 0.00 0.00 0.00 88 1013.0
20260505063327 54 216 2.6 3.5 0.00 0.00 0.00 88 1013.0
20260505062824 54 222 6.1 7.0 0.00 0.00 0.00 88 1013.0
20260505062321 55 246 2.6 2.6 0.00 0.00 0.00 88 1012.7
20260505061818 55 258 4.3 5.2 0.00 0.00 0.00 87 1012.7
20260505061316 55 216 6.1 7.0 0.00 0.00 0.00 87 1012.7
20260505060813 55 234 7.8 8.7 0.00 0.00 0.00 87 1012.7
20260505060310 55 216 7.0 7.0 0.00 0.00 0.00 87 1012.3
20260505055806 55 204 6.1 6.1 0.00 0.00 0.00 87 1012.3
20260505055303 55 264 2.6 3.5 0.00 0.00 0.00 87 1012.7
20260505054800 55 258 4.3 4.3 0.00 0.00 0.00 87 1012.7
20260505054257 55 234 3.5 4.3 0.00 0.00 0.00 86 1012.3
20260505053755 55 216 4.3 4.3 0.00 0.00 0.00 87 1012.7
20260505053252 55 210 3.5 4.3 0.00 0.00 0.00 86 1012.7
20260505052749 55 198 2.6 2.6 0.00 0.00 0.00 86 1012.7
20260505052246 55 186 4.3 4.3 0.00 0.00 0.00 86 1012.3
20260505051742 55 198 1.7 1.7 0.00 0.00 0.00 86 1012.3
20260505051240 56 222 1.7 1.7 0.00 0.00 0.00 86 1012.7
20260505050738 56 192 2.6 2.6 0.00 0.00 0.00 85 1012.0
20260505050237 56 229 5.2 5.2 0.00 0.00 0.00 85 1012.0
20260505041706 57 222 3.5 3.5 0.00 0.00 0.00 82 1011.6
20260505041203 57 222 3.5 4.3 0.00 0.00 0.00 82 1011.6
20260505040701 58 222 3.5 3.5 0.00 0.00 0.00 82 1011.6
20260505040158 58 223 2.6 3.5 0.00 0.00 0.00 81 1011.6
20260505035654 58 218 3.5 3.5 0.00 0.00 0.00 80 1011.6
20260505035150 58 234 3.5 3.5 0.00 0.00 0.00 80 1011.6
20260505034647 59 234 5.2 5.2 0.00 0.00 0.00 79 1011.3
20260505034144 59 234 2.6 2.6 0.00 0.00 0.00 79 1011.3
20260505033640 60 228 1.7 1.7 0.00 0.00 0.00 78 1011.3
20260505033139 60 250 4.3 5.2 0.00 0.00 0.00 77 1011.3
20260505032636 60 252 4.3 5.2 0.00 0.00 0.00 77 1011.3
20260505032127 61 252 4.3 5.2 0.00 0.00 0.00 75 1011.3
20260505031624 61 258 5.2 5.2 0.00 0.00 0.00 75 1011.3
20260505031120 62 263 5.2 5.2 0.00 0.00 0.00 74 1011.0
20260505030618 62 249 7.0 8.7 0.00 0.00 0.00 73 1011.3
20260505030113 63 269 4.3 5.2 0.00 0.00 0.00 72 1011.0
20260505025609 63 259 7.0 7.8 0.00 0.00 0.00 71 1011.0
20260505025108 63 251 5.2 5.2 0.00 0.00 0.00 71 1011.0
20260505024605 64 212 5.2 5.2 0.00 0.00 0.00 69 1010.6
20260505024103 65 283 8.7 9.6 0.00 0.00 0.00 68 1010.6
20260505023600 65 234 5.2 5.2 0.00 0.00 0.00 67 1011.0
20260505023057 66 258 9.6 10.4 0.00 0.00 0.00 67 1010.6
20260505022554 66 270 5.2 5.2 0.00 0.00 0.00 66 1010.6
20260505022051 67 222 7.8 8.7 0.00 0.00 0.00 65 1010.6
20260505021548 67 262 5.2 5.2 0.00 0.00 0.00 65 1010.6
20260505021045 68 234 2.6 3.5 0.00 0.00 0.00 63 1010.6
20260505020544 68 236 4.3 4.3 0.00 0.00 0.00 64 1010.6
20260505020042 68 246 5.2 5.2 0.00 0.00 0.00 63 1010.6
20260505015539 68 260 7.8 8.7 0.00 0.00 0.00 63 1010.6
20260505015035 69 262 4.3 5.2 0.00 0.00 0.00 62 1010.6
20260505014532 69 249 7.0 7.8 0.00 0.00 0.00 62 1010.6
20260505014030 69 228 5.2 5.2 0.00 0.00 0.00 62 1010.6
20260505013527 69 266 7.8 8.7 0.00 0.00 0.00 62 1010.6
20260505013024 70 231 4.3 5.2 0.00 0.00 0.00 61 1010.6
20260505012522 70 254 6.1 7.0 0.00 0.00 0.00 61 1010.6
20260505012019 70 246 5.2 5.2 0.00 0.00 0.00 60 1010.6
20260505011514 70 267 5.2 6.1 0.00 0.00 0.00 60 1010.3
20260505011011 71 252 4.3 5.2 0.00 0.00 0.00 58 1010.6
20260505010507 72 259 4.3 5.2 0.00 0.00 0.00 56 1010.6
20260505010004 73 272 5.2 6.1 0.00 0.00 0.00 57 1010.3
20260505005500 72 226 6.1 6.1 0.00 0.00 0.00 56 1010.3
20260505004958 73 264 5.2 5.2 0.00 0.00 0.00 57 1010.3
20260505004454 74 233 4.3 5.2 0.00 0.00 0.00 56 1010.6
20260505003951 73 282 4.3 5.2 0.00 0.00 0.00 57 1010.6
20260505003448 74 210 1.7 1.7 0.00 0.00 0.00 56 1010.3
20260505002944 74 249 5.2 5.2 0.00 0.00 0.00 56 1010.6
20260505002441 74 246 5.2 5.2 0.00 0.00 0.00 57 1010.3
20260505001939 75 254 8.7 9.6 0.00 0.00 0.00 55 1010.3
20260505001436 75 286 5.2 6.1 0.00 0.00 0.00 56 1010.3
20260505000933 74 254 6.1 6.1 0.00 0.00 0.00 56 1010.3
20260505000431 75 210 3.5 3.5 0.00 0.00 0.00 54 1010.3
20260504235928 75 258 5.2 6.1 0.00 0.00 0.00 54 1010.3
20260504235425 75 210 6.1 6.1 0.00 0.00 0.00 53 1010.3
20260504234921 75 264 2.6 2.6 0.00 0.00 0.00 55 1010.3
20260504234419 75 220 3.5 3.5 0.00 0.00 0.00 54 1010.3
20260504233915 76 210 4.3 4.3 0.00 0.00 0.00 54 1010.3
20260504233411 75 255 3.5 4.3 0.00 0.00 0.00 55 1010.3
20260504232908 75 252 3.5 4.3 0.00 0.00 0.00 56 1010.6
20260504232405 74 258 5.2 5.2 0.00 0.00 0.00 57 1010.3
20260504231902 74 264 6.1 6.1 0.00 0.00 0.00 56 1010.6
20260504231358 73 239 4.3 5.2 0.00 0.00 0.00 58 1011.0
20260504230855 74 270 6.1 7.0 0.00 0.00 0.00 57 1010.6
20260504230352 74 258 2.6 2.6 0.00 0.00 0.00 57 1011.0
20260504225851 75 216 4.3 5.2 0.00 0.00 0.00 56 1010.6
20260504225347 74 239 5.2 5.2 0.00 0.00 0.00 57 1011.0
20260504224845 74 291 4.3 5.2 0.00 0.00 0.00 55 1010.6
20260504224341 73 288 3.5 3.5 0.00 0.00 0.00 58 1011.0
20260504223838 73 258 6.1 7.0 0.00 0.00 0.00 58 1011.0
20260504223333 73 237 6.1 6.1 0.00 0.00 0.00 58 1011.0
20260504222830 73 275 6.1 6.1 0.00 0.00 0.00 58 1011.3
20260504222327 74 264 7.8 8.7 0.00 0.00 0.00 57 1011.3
20260504221826 73 218 5.2 5.2 0.00 0.00 0.00 58 1011.0
20260504221322 73 248 5.2 5.2 0.00 0.00 0.00 60 1011.0
20260504220819 73 260 6.1 6.1 0.00 0.00 0.00 60 1011.3